Location: Asheville, NC
(35.6000°N, 82.5500°W)
Time: 01:36:43
(UTC-04:00)

HO-68 - Pass Details

Date: 09 January 2018
Orbit: 1192 x 1205 km, 100.1° (Epoch: 20 July)

Event Time Altitude Azimuth Distance (km) Brightness Sun altitude
Rises 18:58:38 0° 171° (S) 4,089 ? -16.7°
Reaches altitude 10° 19:01:15 10° 173° (S) 3,126 ? -17.2°
Maximum altitude 19:08:22 70° 257° (WSW) 1,267 ? -18.6°
Drops below altitude 10° 19:15:31 10° 340° (NNW) 3,134 ? -20.0°
Sets 19:18:10 0° 343° (NNW) 4,100 ? -20.5°
